STARLINK-32225, 62036

Orbit data source: Space-Track

STARLINK-32225, 62036 is a payload satellite owned by SpaceX/Seattle (US) in LEO that was launched on Thu, 21 Nov 2024 UTC via an FALCON 9 launch vehicle from the Air Force Eastern Test Range (AFETR). Payload-class satellites include a variety of spacecraft equipped with specific instruments for various scientific and technological missions. These include communications satellites like Starlink; space stations such as the ISS; scientific satellites like the Hubble; Earth observation satellites from companies like Planet Labs, Umbra, and HawkEye 360; GPS; miniature CubeSats for education and research; and military/defense satellites.

Loading next visibility...
Identifier
62036, 2024-216E
Orbit
LEO
Country
Flag of USUS
Related business
Manufacturer
SpaceX/Seattle
Mission
Operational Commercial Communications
Bus & Motor
STARLINK V2M, Unknown motor
Mass
730 kg wet, ~700 kg dry
Launch date (UTC)
2024-11-21 (2 years ago)
Launch vehicle
FALCON 9
Launch site
Air Force Eastern Test Range (AFETR)
Object type
Payload
Rocket body
Debris
Shape & HBR
Box + 2 Pan, 17.7 m
Radar Cross Section
33.884 m², Large (>1 m²)

Expand to show TLE details & history
Last TLE update: 15 hours ago

TLE from 15 hours ago
0 STARLINK-32225
1 62036U 24216E   26236.47087982  .00001833  00000-0  76198-4 0  9996
2 62036  42.9895  28.9376 0002278 209.2839 150.7885 15.27542380 99608
Epoch: 2026-08-24T11:18Z
TLE epoch observation values (Epoch: 2026-08-24T11:18:04.016Z)
Latitude
-0.00002°
Longitude
-113.33127°
Altitude
484.3 km
Speed
7.624 km/s
True Right ascension
01h 55m 45s
True Declination
0° 00' 00"
Sunlit
Object was in full shadow at epoch
Visualization orbit readout
Latitude
Unknown
Longitude
Unknown
Altitude
Unknown
Speed
Unknown
Apparent Right ascension
Unknown
Apparent Declination
Unknown
Sunlit
N/A
Visualization observer readout
Local Sidereal Time
17:06:31
Azimuth
Unknown
Elevation
Unknown
Doppler factor
Unknown
Orbital elements
Apogee altitude
486.672 km
Perigee altitude
483.545 km
Semi-major axis
6,863.246 km
Eccentricity
0.00023
Inclination
42.9895°
RAAN
28.9376°
Arg. of periapsis
209.2839°
True anomaly
150.80124°
Mean anomaly
150.7885°
Eccentric anomaly
150.79487°
Mean motion
3.81723 °/min
Orbital period
94.31 mins
BSTAR
0.000076198
Loading maneuver chart data...
Computing Atmospheric mass density...
Loading historical data...
Loading historical data...
Loading historical data...
Loading historical data...
Loading historical data...
Loading historical data...
Loading historical data...

Documentation

Showing up to 5 results
|